Deer Park, WA
on Monday, February 25, 2013

Monday
Previous Day Next Day
Daily Summary
 ActualAverageRecord
Temperature
Mean Temperature °F 32°F  
Max Temperature 39°F 42°F 52°F (2005)
Min Temperature 28°F 22°F -10°F (2011)
Degree Days
Heating Degree Days 31 33  
Month to date heating degree days 872 872  
Since 1 July heating degree days 4980 5268  
Cooling Degree Days 0 0  
Month to date cooling degree days 0 0  
Year to date cooling degree days 0 0  
Moisture
Dew Point 30°F   
Average Humidity 85    
Maximum Humidity 100    
Minimum Humidity 70    
Precipitation
Precipitation 0.26 in 0.05 in 0.30 in (2012)
Month to date precipitation 0.79 1.43  
Year to date precipitation 2.29 4.06  
Wind
Wind Speed 6 mph   
Max Wind Speed 15 mph   
Max Gust Speed 20 mph   
Visibility 6 miles   
Events Fog , Snow   

Key: T is trace of precipitation, MM is missing value
Source: NWS Daily Summary
Time(PST)TemperatureDew PointHumidity Pressure Visibility Wind DirectionWind SpeedGust SpeedPrecipitationEvents Conditions
12:53 AM 32.0°F 28.0°F 85% 30.08 in 10.0 miles Calm Calm - N/A   Overcast
1:53 AM 30.9°F 27.0°F 85% 30.04 in 10.0 miles Calm Calm - N/A   Overcast
2:53 AM 30.9°F 27.0°F 85% 30.00 in 10.0 miles Calm Calm - N/A   Overcast
3:53 AM 30.9°F 28.0°F 89% 29.97 in 10.0 miles North 4.6 mph - N/A   Overcast
4:42 AM 30.2°F 28.4°F 93% 29.92 in 3.0 miles Calm Calm - 0.00 in Snow Light Snow
4:46 AM 30.2°F 28.4°F 93% 29.92 in 1.8 miles Calm Calm - 0.00 in Snow Light Snow
4:53 AM 30.9°F 28.9°F 92% 29.97 in 1.0 miles Calm Calm - 0.01 in Snow Light Snow
5:01 AM 30.2°F 30.2°F 100% 29.92 in 1.0 miles Calm Calm - 0.01 in Snow Light Snow
5:45 AM 30.2°F 30.2°F 100% 29.90 in 1.0 miles SE 5.8 mph - 0.04 in Snow Light Snow
5:53 AM 30.9°F 30.9°F 100% 29.95 in 1.0 miles SE 5.8 mph - 0.04 in Snow Light Snow
6:11 AM 30.2°F 30.2°F 100% 29.89 in 0.8 miles ESE 5.8 mph - 0.03 in Snow Light Snow
6:36 AM 30.2°F 30.2°F 100% 29.89 in 0.5 miles SE 4.6 mph - 0.06 in Fog , Snow Snow
6:53 AM 30.9°F 30.9°F 100% 29.94 in 0.5 miles SE 4.6 mph - 0.09 in Fog , Snow Snow
7:53 AM 32.0°F 30.9°F 96% 29.93 in 0.5 miles SSE 9.2 mph - 0.07 in Fog , Snow Snow
8:06 AM 32.0°F 32.0°F 100% 29.87 in 0.5 miles SSE 8.1 mph - 0.00 in Fog , Snow Snow
8:45 AM 32.0°F 32.0°F 100% 29.87 in 1.0 miles South 8.1 mph - 0.03 in Snow Light Snow
8:53 AM 32.0°F 32.0°F 100% 29.93 in 1.5 miles South 9.2 mph - 0.03 in Snow Light Snow
8:59 AM 32.0°F 32.0°F 100% 29.88 in 3.0 miles South 9.2 mph - 0.00 in Snow Light Snow
9:16 AM 33.8°F 32.0°F 93% 29.88 in 1.8 miles South 8.1 mph - 0.00 in Snow Light Snow
9:40 AM 33.8°F 32.0°F 93% 29.87 in 1.0 miles SSE 8.1 mph - 0.01 in Snow Light Snow
9:53 AM 33.1°F 32.0°F 96% 29.92 in 3.0 miles South 10.4 mph - 0.01 in Snow Light Snow
10:04 AM 33.8°F 32.0°F 93% 29.87 in 8.0 miles South 11.5 mph - 0.01 in Snow Light Snow
10:50 AM 35.6°F 32.0°F 87% 29.88 in 10.0 miles SW 10.4 mph 18.4 mph 0.01 in   Overcast
10:53 AM 35.1°F 32.0°F 89% 29.93 in 10.0 miles SSW 13.8 mph 18.4 mph 0.01 in   Overcast
11:31 AM 35.6°F 32.0°F 87% 29.88 in 10.0 miles SW 12.7 mph - N/A   Overcast
11:53 AM 36.0°F 32.0°F 86% 29.94 in 10.0 miles SSW 11.5 mph - N/A   Mostly Cloudy
12:53 PM 36.0°F 32.0°F 86% 29.94 in 10.0 miles South 10.4 mph - N/A   Overcast
1:53 PM 37.0°F 32.0°F 82% 29.94 in 10.0 miles SSW 10.4 mph - N/A   Overcast
2:00 PM 37.4°F 32.0°F 81% 29.89 in 10.0 miles SSW 10.4 mph - N/A   Overcast
2:53 PM 37.0°F 32.0°F 82% 29.94 in 10.0 miles South 4.6 mph - N/A   Overcast
3:53 PM 37.9°F 30.0°F 73% 29.95 in 10.0 miles South 4.6 mph - N/A   Overcast
4:53 PM 37.0°F 30.0°F 76% 29.96 in 10.0 miles South 4.6 mph - N/A   Overcast
5:53 PM 36.0°F 27.0°F 70% 29.98 in 10.0 miles SW 4.6 mph - N/A   Overcast
6:53 PM 36.0°F 27.0°F 70% 30.00 in 10.0 miles SSW 5.8 mph - N/A   Overcast
7:53 PM 34.0°F 27.0°F 75% 30.02 in 10.0 miles SSW 5.8 mph - N/A   Overcast
8:53 PM 33.1°F 27.0°F 78% 30.05 in 10.0 miles Calm Calm - N/A   Overcast
9:53 PM 33.1°F 27.0°F 78% 30.08 in 10.0 miles SE 6.9 mph - N/A   Mostly Cloudy
10:53 PM 28.9°F 24.1°F 82% 30.10 in 10.0 miles SSE 8.1 mph - N/A   Clear
11:53 PM 28.9°F 24.1°F 82% 30.13 in 10.0 miles SE 8.1 mph - N/A   Mostly Cloudy
Moon Phase
Feb. 25 Feb. 25 Mar. 04 Mar. 11 Mar. 19
Sunrise:06:37 AM (PST) Moon Rise:05:52 PM (PST)2/25
Sunset:05:28 PM (PST) Moon Set:06:07 AM (PST)2/25

Copyright © 2014 The Weather Underground, Inc.